CAPE
0 202 214 0 29 279 523 640 716 612 564 535 638 798 788 731 605 707 771 721 731 688 676 708 716 819 871 894 917 915 901 922 894 859 871 868 830 744 652 590 570 588
0 67 328 354 270 210 424 672 836 818 709 625 528 485 553 506 424 459 640 706 627 623 686 745 757 750 894 952 990 1002 1010 1003 993 980 981 971 932 841 646 509 504 555
19 0 0 52 253 316 339 390 633 853 850 803 695 611 534 568 531 417 403 479 580 709 745 758 680 744 819 885 931 964 995 1017 1008 1054 1031 1008 941 861 774 623 521 546
57 64 84 76 0 9 107 278 365 509 665 770 730 618 530 501 483 475 440 497 557 626 629 663 661 787 874 888 858 878 882 788 811 906 950 951 876 852 899 784 753 682
39 34 36 62 96 157 93 114 254 409 576 677 704 736 681 644 608 562 596 611 592 666 701 684 656 665 751 805 848 867 838 766 681 555 684 819 793 657 642 826 861 814
30 32 30 30 37 69 198 40 304 104 275 548 670 648 749 702 635 677 718 577 529 579 662 675 693 697 689 675 731 817 865 894 885 748 648 700 745 622 593 652 738 754
15 22 29 3 40 65 139 282 479 543 370 216 399 546 612 675 668 630 668 700 606 522 590 642 663 707 735 710 651 693 770 880 951 920 877 871 811 696 618 745 821 878
0 11 23 32 48 81 148 252 440 602 614 518 240 372 508 595 647 714 784 850 805 812 800 761 706 661 725 714 715 727 810 927 986 971 933 890 874 788 695 656 689 799
0 0 0 0 28 87 167 244 367 503 602 620 580 410 324 497 596 616 637 707 760 727 712 705 720 757 762 735 748 765 795 830 868 830 847 844 774 710 664 489 406 516
0 0 0 0 0 0 157 230 316 387 510 610 632 610 577 366 412 572 624 629 690 791 811 785 786 795 772 704 663 610 590 671 680 657 727 798 720 640 531 424 392 468
0 0 0 0 0 0 112 221 285 340 412 534 625 651 654 675 595 456 531 597 646 670 755 787 798 805 770 703 684 639 612 631 579 577 512 511 517 522 540 506 427 418
0 0 0 0 0 0 69 210 276 326 379 441 542 650 707 689 674 680 715 681 688 707 761 798 800 794 722 674 601 593 541 480 415 399 375 375 374 368 321 320 364 402
0 0 0 0 0 83 213 290 357 387 398 414 425 475 591 690 700 723 646 652 663 708 694 702 691 685 643 623 583 542 491 428 356 371 369 380 402 428 458 470 449 444
0 0 0 0 64 134 170 277 362 412 420 414 402 420 421 459 573 718 753 684 654 666 629 630 596 569 514 482 459 433 421 418 411 394 362 363 394 420 435 388 400 435
0 0 0 0 0 0 158 227 312 385 431 449 423 408 420 429 459 575 704 729 684 628 618 560 591 568 380 353 338 419 534 524 492 452 434 434 433 388 478 500 505 482
0 0 0 0 0 0 0 94 202 241 192 241 301 350 406 445 463 480 574 628 609 597 578 438 377 332 319 316 318 320 318 329 337 514 599 600 578 548 530 527 524 501
2 1 1 1 0 0 0 0 0 179 238 246 272 339 391 402 433 481 510 555 553 486 417 339 332 349 309 299 272 253 238 273 301 325 343 372 506 631 659 693 765 756
0 1 2 1 2 0 0 0 0 0 145 183 210 280 357 397 422 448 499 518 490 449 395 337 272 218 200 197 234 261 287 287 274 236 230 271 351 372 400 412 508 647
0 0 0 0 0 0 0 0 0 0 15 67 126 218 290 329 397 432 464 473 433 397 355 310 264 211 196 186 172 176 213 237 226 200 210 229 210 211 258 280 296 361
0 0 0 0 0 0 0 0 0 0 0 0 43 137 203 238 258 286 337 389 408 371 314 271 256 232 202 204 203 184 162 168 184 196 178 176 176 175 163 169 189 199
0 0 0 0 0 0 0 0 0 0 0 0 3 11 18 0 0 0 23 214 236 214 204 205 207 225 263 242 204 170 123 111 108 128 182 204 168 122 114 118 126 118
0 0 0 0 0 0 0 0 0 0 0 0 0 0 0 6 11 30 36 30 46 58 55 56 49 55 78 123 96 106 132 154 157 148 145 125 69 29 31 40 54 51
0 0 0 0 0 0 0 0 0 0 0 0 0 0 0 0 0 0 0 0 0 2 2 2 2 0 0 0 0 8 40 0 28 88 65 82 94 74 40 23 16 10
0 0 0 0 0 0 0 0 0 0 0 0 0 0 0 0 0 0 0 0 0 0 0 0 2 1 0 0 0 0 2 0 0 0 7 49 56 65 60 49 48 28
0 0 0 0 0 0 0 0 0 0 0 0 0 0 0 0 0 0 0 0 0 0 1 0 2 1 1 0 0 0 2 0 0 1 1 1 0 0 0 2 18 29
0 0 0 0 0 0 0 0 0 0 0 0 0 0 0 0 0 0 0 0 0 0 0 0 1 1 2 0 0 1 0 4 0 1 2 1 1 2 1 0 0 0
Wind_Speed
nan 24 27 nan nan 30 31 32 32 32 34 37 39 39 40 38 38 37 32 30 28 28 29 29 30 30 31 34 35 34 36 36 36 36 34 34 34 31 28 26 26 26
nan nan 25 28 30 31 30 31 32 33 34 37 38 39 38 36 36 39 40 40 40 34 31 30 30 31 32 34 35 33 35 38 36 40 38 36 36 36 33 32 31 31
nan nan nan nan 29 31 31 32 32 34 35 36 37 39 39 39 39 40 39 39 38 34 32 31 31 32 33 33 34 34 35 39 41 43 43 40 42 41 39 38 36 33
nan nan nan nan nan nan 33 34 34 34 36 37 38 40 41 39 40 39 38 37 37 36 36 34 29 30 32 33 35 38 41 41 38 43 46 46 45 44 43 41 38 36
nan nan nan nan nan 34 nan 37 37 36 36 36 38 39 40 40 40 40 39 37 36 36 37 35 30 28 31 34 37 36 33 34 42 50 47 44 42 42 42 41 37 36
nan nan nan nan nan nan 38 nan 40 39 38 39 38 39 38 38 39 40 40 39 39 38 38 37 34 31 31 32 35 34 32 36 44 49 47 43 42 42 43 41 38 35
nan nan nan nan nan nan 39 41 41 42 42 41 41 40 38 37 38 41 41 40 39 38 37 37 37 35 34 32 32 31 31 34 43 48 45 44 42 40 41 40 38 35
nan nan nan nan nan nan 39 41 43 43 43 45 45 43 40 37 38 41 42 41 40 39 37 38 39 39 38 35 30 27 27 34 41 44 43 42 42 41 41 42 41 37
nan nan nan nan nan nan 35 40 43 43 45 46 48 48 45 41 39 41 43 43 43 42 41 41 40 38 40 38 31 27 27 33 39 40 40 40 40 40 39 40 39 38
nan nan nan nan nan nan 31 37 42 44 44 46 49 50 48 45 41 41 43 44 44 45 45 45 43 40 40 40 37 31 30 33 36 38 38 39 39 40 41 42 40 38
nan nan nan nan nan nan 31 35 41 44 44 45 48 52 52 49 45 43 42 42 43 44 45 46 46 44 43 43 42 39 36 37 39 40 40 40 40 40 40 41 41 38
nan nan nan nan nan nan nan 33 37 43 44 43 46 49 53 53 49 47 45 43 43 43 45 47 48 47 46 44 43 42 41 41 42 42 42 42 42 42 42 43 43 41
nan nan nan nan nan nan 30 31 34 39 42 42 43 45 50 54 53 50 49 47 45 44 45 47 49 50 50 48 47 46 45 45 45 44 42 41 40 39 39 40 41 40
nan nan nan nan nan 25 28 29 30 33 37 39 41 45 48 52 53 52 52 51 49 48 48 50 52 52 52 52 51 49 48 47 47 46 44 41 40 38 38 37 36 36
nan nan nan nan nan nan 22 24 25 28 32 35 39 42 45 48 50 52 52 54 53 50 49 48 49 53 57 58 56 54 50 48 48 47 46 44 43 42 42 40 39 37
nan nan nan nan nan nan nan nan 20 24 28 32 36 38 42 46 50 53 55 55 54 53 53 57 59 57 60 68 65 60 56 56 55 52 50 47 45 44 43 42 40 39
nan nan nan nan nan nan nan nan nan 19 23 28 31 34 37 41 46 53 54 54 58 60 59 55 54 55 62 64 65 65 60 54 54 54 54 53 51 48 45 43 40 36
nan nan nan nan nan nan nan nan nan nan 21 23 26 29 30 33 41 46 50 52 55 57 55 53 53 58 61 62 63 63 62 57 53 53 53 52 51 50 49 47 46 43
nan nan nan nan nan nan nan nan nan nan nan nan 24 24 25 30 33 38 44 47 50 53 53 53 53 56 58 60 60 61 61 59 57 56 54 53 52 52 51 50 49 47
nan nan nan nan nan nan nan nan nan nan nan nan nan 22 25 27 29 34 37 43 47 48 49 51 52 53 57 58 58 57 57 56 57 58 58 57 57 56 55 55 54 53
nan nan nan nan nan nan nan nan nan nan nan nan nan nan nan nan nan nan nan 39 43 44 45 48 49 54 54 56 57 55 52 52 53 56 58 60 61 62 61 59 59 57
nan nan nan nan nan nan nan nan nan nan nan nan nan nan nan nan nan nan nan nan nan nan nan nan nan nan nan 55 nan 56 51 50 51 52 54 56 nan nan nan nan nan nan
nan nan nan nan nan nan nan nan nan nan nan nan nan nan nan nan nan nan nan nan nan nan nan nan nan nan nan nan nan nan nan nan nan nan nan nan nan nan nan nan nan nan
nan nan nan nan nan nan nan nan nan nan nan nan nan nan nan nan nan nan nan nan nan nan nan nan nan nan nan nan nan nan nan nan nan nan nan nan nan nan nan nan nan nan
nan nan nan nan nan nan nan nan nan nan nan nan nan nan nan nan nan nan nan nan nan nan nan nan nan nan nan nan nan nan nan nan nan nan nan nan nan nan nan nan nan nan
nan nan nan nan nan nan nan nan nan nan nan nan nan nan nan nan nan nan nan nan nan nan nan nan nan nan nan nan nan nan nan nan nan nan nan nan nan nan nan nan nan nan
Wind_Direction
nan 234 235 nan nan 236 228 222 223 227 230 231 233 236 239 239 240 245 249 246 246 250 253 253 250 248 246 244 243 242 243 243 242 241 237 233 229 229 229 229 231 232
nan nan 238 242 243 241 235 227 220 222 226 228 229 233 234 232 235 243 244 243 243 240 240 243 249 249 247 247 246 243 238 238 240 238 236 232 228 227 224 225 225 226
nan nan nan nan 239 240 239 236 228 223 224 228 227 231 230 228 231 234 236 241 246 249 252 254 250 246 244 246 247 244 241 236 232 234 231 226 223 226 226 224 221 226
nan nan nan nan nan nan 238 237 234 228 225 224 226 229 230 228 228 231 234 237 240 240 243 247 249 247 245 244 246 245 243 239 235 241 237 229 225 225 226 226 220 220
nan nan nan nan nan 243 nan 240 236 232 229 227 226 229 231 228 227 228 230 234 236 235 236 239 242 245 245 244 246 247 247 244 237 239 240 233 229 230 230 232 226 221
nan nan nan nan nan nan 246 nan 241 236 231 228 227 229 232 230 228 230 228 228 232 233 232 235 239 242 242 243 245 247 247 244 244 245 242 238 232 231 231 232 230 226
nan nan nan nan nan nan 250 244 242 239 233 230 229 229 231 231 228 229 230 228 228 231 232 235 239 240 242 242 244 245 243 243 243 243 240 236 235 233 233 233 232 231
nan nan nan nan nan nan 252 243 238 237 234 231 229 227 229 228 225 228 230 228 227 227 229 234 239 240 243 244 244 244 239 237 239 241 239 236 234 232 232 231 230 229
nan nan nan nan nan nan 253 244 236 234 233 230 229 229 229 227 224 225 228 228 227 228 230 232 236 236 238 239 241 242 237 232 233 236 238 238 236 235 234 234 233 232
nan nan nan nan nan nan 249 243 236 233 233 230 228 229 231 231 228 225 227 227 226 227 229 231 233 233 233 235 238 235 234 231 230 234 237 237 236 235 235 236 236 236
nan nan nan nan nan nan 249 242 236 232 232 230 228 228 228 231 232 231 228 228 227 225 225 229 232 232 233 234 237 235 230 227 228 230 233 234 234 235 236 237 238 238
nan nan nan nan nan nan nan 245 239 234 231 230 228 227 228 229 230 232 233 232 231 227 226 227 229 231 233 235 234 233 230 227 227 228 229 231 232 235 236 237 237 237
nan nan nan nan nan nan 252 250 244 238 235 231 228 227 228 229 229 229 232 234 233 232 229 226 226 227 230 232 232 231 230 228 229 230 230 231 232 233 234 235 236 237
nan nan nan nan nan 260 252 254 251 243 238 235 232 228 226 228 229 229 230 234 235 235 233 230 227 227 227 229 230 230 230 230 232 232 233 233 234 234 235 235 236 238
nan nan nan nan nan nan 247 248 251 249 245 240 235 231 228 227 229 231 231 233 235 237 237 236 234 230 227 225 226 227 229 231 232 234 235 235 237 239 240 241 241 241
nan nan nan nan nan nan nan nan 247 247 247 244 239 234 231 228 228 231 233 233 236 237 238 237 235 234 228 227 231 232 230 229 227 229 232 234 236 238 241 244 246 246
nan nan nan nan nan nan nan nan nan 249 245 242 240 237 235 232 231 231 232 233 236 240 241 241 240 236 229 230 229 229 232 233 234 232 230 228 229 232 234 237 240 243
nan nan nan nan nan nan nan nan nan nan 247 238 233 231 234 237 236 234 233 234 239 242 243 243 242 236 234 232 231 230 231 234 235 236 236 234 230 229 229 230 228 227
nan nan nan nan nan nan nan nan nan nan nan nan 232 229 233 237 237 237 236 235 239 242 243 242 242 238 237 235 233 232 232 235 238 235 234 234 234 231 228 227 228 228
nan nan nan nan nan nan nan nan nan nan nan nan nan 237 235 235 235 235 236 237 238 240 245 244 242 239 238 236 235 234 234 238 242 240 238 235 233 232 231 228 227 226
nan nan nan nan nan nan nan nan nan nan nan nan nan nan nan nan nan nan nan 235 236 237 241 246 244 239 239 237 236 235 235 242 245 245 243 240 237 235 232 231 230 230
nan nan nan nan nan nan nan nan nan nan nan nan nan nan nan nan nan nan nan nan nan nan nan nan nan nan nan 237 nan 235 237 246 246 246 245 244 nan nan nan nan nan nan
nan nan nan nan nan nan nan nan nan nan nan nan nan nan nan nan nan nan nan nan nan nan nan nan nan nan nan nan nan nan nan nan nan nan nan nan nan nan nan nan nan nan
nan nan nan nan nan nan nan nan nan nan nan nan nan nan nan nan nan nan nan nan nan nan nan nan nan nan nan nan nan nan nan nan nan nan nan nan nan nan nan nan nan nan
nan nan nan nan nan nan nan nan nan nan nan nan nan nan nan nan nan nan nan nan nan nan nan nan nan nan nan nan nan nan nan nan nan nan nan nan nan nan nan nan nan nan
nan nan nan nan nan nan nan nan nan nan nan nan nan nan nan nan nan nan nan nan nan nan nan nan nan nan nan nan nan nan nan nan nan nan nan nan nan nan nan nan nan nan